sat.trackr.live / text

‹ back to catalog

YAOGAN-25 01A

NORAD 40338 · 2014-080A

PAYLOAD ACTIVE UNKNOWN

§ Identity

Operator
Country
PRC
Launch date
2014-12-10
Launch site
JSC
Launch vehicle
Mass (kg)
RCS (m²)
2.33

External: N2YO · Heavens-Above · Gunter

§ Orbital elements

Epoch: 2026-05-25T03:58:37.331040Z

Period
107.03 min
Inclination
63.3897°
Eccentricity
0.0364618
Mean motion
13.45411300 rev/d
Perigee alt
816.9 km
Apogee alt
1,361.5 km
Semi-major
7,467.3 km
B*
-1.7375e-4
RAAN
10.0981°
Arg perigee
9.0582°
Mean anomaly
351.6789°
Rev number
56,256

§ Raw data

YAOGAN-25 01A1 40338U 14080A   26145.16570985 -.00000245  00000+0 -17375-3 0  99982 40338  63.3897  10.0981 0364618   9.0582 351.6789 13.45411300562562

JSON: /api/v1/satellites/40338 · /tle

For live sub-satellite position, see the globe view (requires WebGL).

§ Visibility from observer

Set your observer location to see the next 7 days of passes ≥ 10°. The values pass through the URL so the page stays shareable.

No JS? Fill the form by hand. The geolocation button needs JavaScript.